{"data":{"norad_id":56520,"epoch":"2026-09-19T23:34:15.126528Z","epoch_age_seconds":159544,"freshness":"FRESH","line1":"1 56520U 23065T   26262.98211952  .00000000  00000+0  95341-5 0  9995","line2":"2 56520  43.0008 195.2660 0000748 246.6259 113.4514 15.27575467186314","mean_motion":15.27575467,"eccentricity":7.48e-5,"inclination_deg":43.0008,"raan_deg":195.266,"arg_perigee_deg":246.6259,"mean_anomaly_deg":113.4514,"bstar":9.5341e-6,"rev_number":18631,"period_min":94.267028445279,"perigee_km":482.54945177068,"apogee_km":483.57588724124,"semimajor_km":6861.199669506,"source":"CELESTRAK","updated_at":"2026-09-21T09:00:33.472430Z"}}